This demonstration page uses our WeatherBlox Daily Observations layout. Learn more.

Left ArrowRight Arrow

34.02893, -84.19858

Hourly Observations for October 3, 2015

Temp ( °F °C ) Dew Point ( °F °C ) Humidity (%) Winds ( mph kmh ) Pressure ( in mb ) Visibility ( mi km ) Precip ( " mm )
3:53 am 03:53 Cloudy with Light Rain 57 13.9 57 13.9 100 100 VRB 3 6 29.70 1006 3 4 0.04 1.02
4:35 am 04:35 Cloudy with Rain 57 13.9 57 13.9 100 100 Calm 29.68 1005 2 3 0.04 1.02
5:07 am 05:07 Cloudy with Heavy Rain 57 13.9 57 13.9 100 100 NNE 6 9 29.68 1005 1 2 0.17 4.32
5:53 am 05:53 Cloudy with Light Rain 57 14 57 14 100 100 N 5 7 29.68 1005 4 6 0.00 0.00
6:37 am 06:37 Cloudy with Mist and Fog 58 14.4 58 14.4 100 100 N 7 11 29.68 1005 4 6 0.01 0.25
6:44 am 06:44 Cloudy with Mist and Fog 57 14 57 14 100 100 N 7 11 29.68 1005 5 8 0.00 0.00
6:53 am 06:53 Cloudy 58 14.4 58 14.4 100 100 NNE 9 15 29.68 1005 7 11 0.01 0.25
7:53 am 07:53 Cloudy with Mist and Fog 58 14.4 58 14.4 100 100 NNE 7 11 29.69 1005 3 5 0.00 0.03
8:53 am 08:53 Cloudy with Light Rain 58 14.4 58 14.4 100 100 NE 9 15 29.69 1005 3 5 0.01 0.25
9:00 am 09:00 Cloudy with Mist and Fog 59 15 57 14 94 94 NE 7 11 29.68 1005 2 3 0.00 0.00
9:16 am 09:16 Cloudy with Light Rain 59 15 57 14 94 94 NNE 9 15 29.68 1005 8 13 0.00 0.00
9:31 am 09:31 Cloudy with Light Rain 59 15 57 13.9 93 93 NE 10 17 29.68 1005 7 11 0.01 0.25
9:53 am 09:53 Cloudy with Light Rain 59 15 57 13.9 93 93 NE 10 17 29.69 1005 8 13 0.01 0.25
10:53 am 10:53 Cloudy 60 15.6 57 13.9 90 90 NE 8 13 29.70 1006 10 16 0.00 0.03
11:53 am 11:53 Cloudy 61 16.1 57 13.9 87 87 NE 9 15 29.70 1006 8 13 0.00 0.03
12:00 pm 12:00 Cloudy 61 16.1 57 13.9 87 87 VRB 3 6 29.68 1005 10 16 0.00 0.00
12:12 pm 12:12 Mostly Cloudy with Mist and Fog 61 16 57 14 88 88 NNE 6 9 29.68 1005 4 6 0.00 0.00
12:50 pm 12:50 Cloudy with Light Rain 61 16 59 15 94 94 NE 6 9 29.68 1005 3 4 0.00 0.00
12:53 pm 12:53 Cloudy with Light Rain 60 15.6 59 15 96 96 NE 6 9 29.69 1006 3 4 0.01 0.25
12:59 pm 12:59 Cloudy with Light Rain 60 15.6 59 15 96 96 NNE 6 9 29.68 1005 3 5 0.00 0.03
1:53 pm 13:53 Cloudy 62 16.7 58 14.4 86 86 NE 7 11 29.68 1005 10 16 0.00 0.03
2:00 pm 14:00 Cloudy 63 17 59 15 88 88 NE 6 9 29.68 1005 10 16 0.00 0.00
2:35 pm 14:35 Cloudy 63 17.2 59 15 87 87 VRB 7 11 29.68 1005 10 16 0.00 0.03
2:38 pm 14:38 Cloudy 63 17 59 15 88 88 NE 8 13 29.68 1005 10 16 0.00 0.00
2:53 pm 14:53 Cloudy with Mist and Fog 62 16.7 59 15 90 90 NNE 9 15 29.67 1005 4 6 0.00 0.03
3:53 pm 15:53 Cloudy with Mist and Fog 64 17.8 60 15.6 87 87 VRB 3 6 29.66 1004 4 6 0.00 0.03
4:53 pm 16:53 Cloudy 64 17.8 62 16.7 93 93 VRB 7 11 29.66 1004 7 11 0.00 0.03
5:53 pm 17:53 Cloudy 63 17.2 61 16.1 93 93 NNE 9 15 29.66 1004 10 16 0.00 0.03
6:53 pm 18:53 Cloudy with Light Rain 61 16.1 60 15.6 97 97 Calm 29.68 1005 5 8 0.03 0.76
7:03 pm 19:03 Cloudy with Light Rain 61 16 61 16 100 100 Calm 29.68 1005 8 13 0.00 0.00
7:53 pm 19:53 Cloudy 60 15.6 60 15.6 100 100 N 10 17 29.66 1004 10 16 0.05 1.27
8:19 pm 20:19 Cloudy with Rain 60 15.6 60 15.6 100 100 N 13 20 29.68 1005 7 11 0.03 0.76
8:46 pm 20:46 Cloudy with Light Rain 61 16 61 16 100 100 SSW 5 7 29.68 1005 9 14 0.00 0.00
8:53 pm 20:53 Cloudy with Light Rain 61 16.1 60 15.6 97 97 S 6 9 29.69 1005 10 16 0.06 1.52
9:53 pm 21:53 Cloudy 62 16.7 61 16.1 96 96 NW 3 6 29.69 1006 10 16 0.01 0.25
10:22 pm 22:22 Cloudy with Light Rain 63 17 61 16 94 94 NW 6 9 29.68 1005 10 16 0.00 0.00
10:34 pm 22:34 Cloudy with Light Rain 63 17 61 16 94 94 undefined N/A 29.68 1005 10 16 0.00 0.00
10:53 pm 22:53 Cloudy with Light Rain 62 16.7 62 16.7 100 100 NW 6 9 29.69 1005 10 16 0.00 0.03
11:18 pm 23:18 Cloudy with Light Rain 63 17 63 17 100 100 SW 3 6 29.68 1005 9 14 0.00 0.00
11:38 pm 23:38 Cloudy with Light Rain 63 17 63 17 100 100 Calm 29.71 1006 10 16 0.00 0.00
11:53 pm 23:53 Cloudy 62 16.7 62 16.7 100 100 Calm 29.71 1006 10 16 0.01 0.25

Powered by AerisWeather